Logansport, IN

4:52 PM EDT on October 22, 2017 (GMT -0400)
Logansport Municipal

Weather History for KGGP - May, 2014

Change the Weather History Date:

Monday, May 5, 2014

  Actual Average Record
Temperature  
Mean Temperature 52 °F -  
Max Temperature 62 °F 68 °F 80 °F (2015)
Min Temperature 41 °F 48 °F 39 °F (2016)
Degree Days  
Heating Degree Days 14    
Growing Degree Days 2 (Base 50)    
Moisture  
Dew Point 34 °F    
Average Humidity 50    
Maximum Humidity 76    
Minimum Humidity 36    
Precipitation  
Precipitation 0.02 in - - ()
Sea Level Pressure  
Sea Level Pressure 29.95 in    
Wind  
Wind Speed 9 mph (ENE)    
Max Wind Speed 18 mph    
Max Gust Speed 24 mph    
Visibility 10 miles    
Events Rain    
Averages and records for this station are not official NWS values.
T = Trace of Precipitation, MM = Missing Value Source: NWS Daily Summary

Daily Weather History Graph

Daily Weather History Graph

Search for Another Location

Airport or City:

Trip Planner

Search our weather history database for the weather conditions in past years. The results will help you decide how hot, cold, wet, or windy it might be!

Date:

Astronomy

May. 05, 2014 Rise Set
Actual Time 6:39 AM EDT 8:45 PM EDT
Civil Twilight 6:09 AM EDT 9:15 PM EDT
Nautical Twilight 5:32 AM EDT 9:53 PM EDT
Astronomical Twilight 4:52 AM EDT 10:33 PM EDT
Moon 11:58 AM EDT (5/5) 1:29 AM EDT (5/5)
Length of Visible Light 15h 06m
Length of Day
14h 06m
Waxing Crescent, 36% of the Moon is Illuminated
May 5
Waxing Crescent
May 6
First Quarter
May 14
Full
May 21
Last Quarter
May 28
New

Hourly Weather History & Observations

Time (EDT) Temp. Windchill Dew Point Humidity Pressure Visibility Wind Dir Wind Speed Gust Speed Precip Events Conditions
12:15 AM 46.4 °F 45.2 °F 26.6 °F 46% 30.07 in 10.0 mi NE 3.5 mph - N/A   Scattered Clouds
12:35 AM 46.4 °F - 26.6 °F 46% 30.07 in 10.0 mi Calm Calm - N/A   Mostly Cloudy
12:55 AM 46.4 °F 42.9 °F 26.6 °F 46% 30.07 in 10.0 mi NNE 6.9 mph - N/A   Overcast
1:15 AM 44.6 °F 40.2 °F 28.4 °F 53% 30.04 in 10.0 mi ENE 8.1 mph - N/A   Overcast
1:35 AM 44.6 °F 40.7 °F 28.4 °F 53% 30.01 in 10.0 mi NE 6.9 mph - N/A   Mostly Cloudy
1:55 AM 44.6 °F 40.7 °F 28.4 °F 53% 30.04 in 10.0 mi ENE 6.9 mph - N/A   Mostly Cloudy
2:15 AM 44.6 °F 40.7 °F 28.4 °F 53% 30.01 in 10.0 mi ENE 6.9 mph - N/A Rain Light Rain
2:35 AM 44.6 °F 40.7 °F 28.4 °F 53% 30.01 in 10.0 mi NE 6.9 mph - N/A   Mostly Cloudy
2:55 AM 44.6 °F 40.7 °F 28.4 °F 53% 30.02 in 10.0 mi NE 6.9 mph - N/A   Mostly Cloudy
3:15 AM 44.6 °F 40.7 °F 30.2 °F 57% 30.00 in 10.0 mi ENE 6.9 mph - N/A   Mostly Cloudy
3:35 AM 44.6 °F - 30.2 °F 57% 30.04 in 10.0 mi Calm Calm - N/A   Mostly Cloudy
3:55 AM 41.0 °F 34.7 °F 33.8 °F 76% 29.97 in 10.0 mi East 10.4 mph - 0.02 in Rain Light Rain
4:15 AM 42.8 °F 38.0 °F 33.8 °F 70% 29.98 in 10.0 mi East 8.1 mph - N/A   Scattered Clouds
4:35 AM 42.8 °F 39.3 °F 32.0 °F 66% 29.99 in 10.0 mi ENE 5.8 mph - N/A   Clear
4:55 AM 42.8 °F 40.1 °F 32.0 °F 66% 30.00 in 10.0 mi NE 4.6 mph - N/A   Mostly Cloudy
5:15 AM 42.8 °F 37.5 °F 32.0 °F 66% 30.00 in 10.0 mi East 9.2 mph - N/A   Overcast
5:35 AM 42.8 °F 37.5 °F 33.8 °F 70% 29.99 in 10.0 mi East 9.2 mph - N/A   Overcast
6:15 AM 44.6 °F 40.7 °F 32.0 °F 61% 30.01 in 10.0 mi ENE 6.9 mph - N/A   Overcast
6:35 AM 42.8 °F 35.8 °F 35.6 °F 76% 29.94 in 10.0 mi ESE 13.8 mph - N/A Rain Light Rain
6:55 AM 44.6 °F 40.7 °F 33.8 °F 66% 29.99 in 10.0 mi East 6.9 mph - N/A   Scattered Clouds
7:15 AM 44.6 °F 37.4 °F 35.6 °F 71% 29.97 in 10.0 mi ESE 16.1 mph - N/A   Scattered Clouds
7:35 AM 44.6 °F 36.9 °F 33.8 °F 66% 29.94 in 10.0 mi ESE 18.4 mph 23.0 mph N/A   Scattered Clouds
7:55 AM 44.6 °F 37.4 °F 35.6 °F 71% 29.95 in 10.0 mi SE 16.1 mph - N/A   Mostly Cloudy
8:15 AM 46.4 °F 41.1 °F 35.6 °F 66% 29.98 in 10.0 mi ESE 11.5 mph - N/A   Overcast
8:35 AM 46.4 °F 40.4 °F 35.6 °F 66% 29.97 in 10.0 mi East 13.8 mph - N/A   Mostly Cloudy
8:55 AM 46.4 °F 40.4 °F 35.6 °F 66% 29.96 in 10.0 mi East 13.8 mph 18.4 mph N/A   Mostly Cloudy
9:15 AM 48.2 °F - 35.6 °F 62% 29.96 in 10.0 mi East 13.8 mph 18.4 mph N/A   Mostly Cloudy
9:35 AM 48.2 °F - 37.4 °F 66% 29.96 in 10.0 mi ESE 12.7 mph - N/A   Overcast
9:55 AM 51.8 °F - 37.4 °F 58% 29.96 in 10.0 mi ESE 15.0 mph - N/A   Scattered Clouds
10:15 AM 50.0 °F - 37.4 °F 62% 29.97 in 10.0 mi East 16.1 mph - N/A   Mostly Cloudy
10:35 AM 51.8 °F - 37.4 °F 58% 29.96 in 10.0 mi ESE 15.0 mph - N/A   Scattered Clouds
10:55 AM 53.6 °F - 35.6 °F 51% 29.96 in 10.0 mi East 17.3 mph - N/A   Clear
11:15 AM 55.4 °F - 37.4 °F 51% 29.94 in 10.0 mi East 15.0 mph - N/A   Clear
11:35 AM 55.4 °F - 37.4 °F 51% 29.94 in 10.0 mi East 12.7 mph 19.6 mph N/A   Clear
11:55 AM 57.2 °F - 35.6 °F 44% 29.93 in 10.0 mi East 16.1 mph 20.7 mph N/A   Clear
12:15 PM 59.0 °F - 35.6 °F 42% 29.93 in 10.0 mi ENE 12.7 mph 24.2 mph N/A   Clear
12:35 PM 59.0 °F - 35.6 °F 42% 29.93 in 10.0 mi East 12.7 mph - N/A   Clear
12:55 PM 59.0 °F - 35.6 °F 42% 29.92 in 10.0 mi East 13.8 mph 20.7 mph N/A   Clear
1:15 PM 59.0 °F - 35.6 °F 42% 29.92 in 10.0 mi East 16.1 mph 20.7 mph N/A   Clear
1:35 PM 60.8 °F - 35.6 °F 39% 29.91 in 10.0 mi East 15.0 mph 20.7 mph N/A   Clear
1:55 PM 60.8 °F - 35.6 °F 39% 29.91 in 10.0 mi ENE 11.5 mph 19.6 mph N/A   Clear
2:15 PM 60.8 °F - 35.6 °F 39% 29.92 in 10.0 mi ENE 12.7 mph - N/A   Clear
2:35 PM 60.8 °F - 35.6 °F 39% 29.92 in 10.0 mi ENE 11.5 mph 21.9 mph N/A   Clear
2:55 PM 60.8 °F - 37.4 °F 42% 29.91 in 10.0 mi ENE 10.4 mph 18.4 mph N/A   Clear
3:15 PM 60.8 °F - 37.4 °F 42% 29.91 in 10.0 mi ENE 13.8 mph 17.3 mph N/A   Clear
3:35 PM 60.8 °F - 37.4 °F 42% 29.91 in 10.0 mi East 16.1 mph 19.6 mph N/A   Clear
3:55 PM 62.6 °F - 37.4 °F 39% 29.90 in 10.0 mi ENE 11.5 mph 20.7 mph N/A   Clear
4:15 PM 62.6 °F - 35.6 °F 37% 29.89 in 10.0 mi East 12.7 mph 19.6 mph N/A   Clear
4:35 PM 62.6 °F - 35.6 °F 37% 29.89 in 10.0 mi East 15.0 mph - N/A   Clear
4:55 PM 62.6 °F - 37.4 °F 39% 29.89 in 10.0 mi East 15.0 mph - N/A   Clear
5:15 PM 62.6 °F - 35.6 °F 37% 29.88 in 10.0 mi ENE 11.5 mph 17.3 mph N/A   Clear
5:35 PM 62.6 °F - 35.6 °F 37% 29.89 in 10.0 mi East 12.7 mph - N/A   Clear
5:55 PM 62.6 °F - 35.6 °F 37% 29.90 in 10.0 mi East 12.7 mph - N/A   Clear
6:15 PM 62.6 °F - 35.6 °F 37% 29.89 in 10.0 mi East 11.5 mph - N/A   Clear
6:35 PM 60.8 °F - 35.6 °F 39% 29.89 in 10.0 mi East 15.0 mph - N/A   Clear
6:55 PM 60.8 °F - 35.6 °F 39% 29.89 in 10.0 mi East 9.2 mph - N/A   Clear
7:15 PM 60.8 °F - 33.8 °F 36% 29.90 in 10.0 mi ENE 10.4 mph - N/A   Clear
7:35 PM 59.0 °F - 33.8 °F 39% 29.91 in 10.0 mi NE 8.1 mph - N/A   Clear
7:55 PM 59.0 °F - 33.8 °F 39% 29.91 in 10.0 mi ENE 5.8 mph - N/A   Clear
8:15 PM 59.0 °F - 33.8 °F 39% 29.91 in 10.0 mi ENE 9.2 mph - N/A   Clear
8:35 PM 57.2 °F - 32.0 °F 38% 29.91 in 10.0 mi ENE 5.8 mph - N/A   Clear
8:55 PM 55.4 °F - 32.0 °F 41% 29.90 in 10.0 mi ENE 6.9 mph - N/A   Clear
9:15 PM 55.4 °F - 32.0 °F 41% 29.91 in 10.0 mi NE 4.6 mph - N/A   Clear
9:35 PM 55.4 °F - 32.0 °F 41% 29.93 in 10.0 mi NE 5.8 mph - N/A   Clear
9:55 PM 53.6 °F - 32.0 °F 44% 29.93 in 10.0 mi NE 5.8 mph - N/A   Clear
10:15 PM 53.6 °F - 32.0 °F 44% 29.93 in 10.0 mi NE 8.1 mph - N/A   Clear
10:35 PM 53.6 °F - 33.8 °F 47% 29.93 in 10.0 mi NE 6.9 mph - N/A   Clear
10:55 PM 51.8 °F - 32.0 °F 47% 29.92 in 10.0 mi ENE 10.4 mph - N/A   Clear
11:15 PM 51.8 °F - 32.0 °F 47% 29.93 in 10.0 mi ENE 6.9 mph - N/A   Clear
11:35 PM 51.8 °F - 32.0 °F 47% 29.93 in 10.0 mi East 8.1 mph - N/A   Clear
11:55 PM 50.0 °F - 32.0 °F 50% 29.93 in 10.0 mi ENE 8.1 mph - N/A   Clear